Theta_e
315 321 324 325 326 327 328 330 331 329 328 329 331 332 330 333 332 332 328 321 315 319 324 330 329 329 333 334 334 327 317 312 310 308 308 308 308 308 307 307 307 307 306 306
320 320 320 324 331 329 329 331 331 326 334 330 330 330 332 331 329 325 326 320 314 317 321 323 322 320 324 324 325 319 315 311 309 308 308 308 308 308 308 308 307 307 307 307
321 323 324 331 334 333 331 331 329 332 330 324 331 330 328 325 325 318 315 314 314 313 320 317 313 313 312 317 318 315 312 310 308 308 308 308 307 307 307 307 307 307 307 306
323 323 326 329 332 333 334 331 330 331 331 336 327 335 321 317 319 315 313 312 314 314 316 312 310 310 309 310 311 311 310 309 308 308 307 307 307 307 308 308 308 307 307 306
323 327 326 330 330 330 332 330 332 330 329 328 323 325 321 314 316 314 313 312 312 312 312 308 307 310 310 310 310 310 310 309 308 307 307 307 308 309 309 309 308 308 309 308
323 323 325 325 324 328 326 323 323 323 324 327 324 326 324 315 314 313 312 312 310 308 310 307 307 309 309 309 309 309 308 307 307 307 307 307 308 308 309 309 309 309 309 308
325 325 323 325 324 323 324 326 326 329 331 329 317 322 324 312 311 312 311 311 307 305 307 305 304 305 307 308 308 308 307 307 306 307 307 308 308 308 307 307 307 307 306 305
327 327 322 323 324 324 325 327 323 327 321 320 317 318 316 310 309 308 308 307 305 304 303 304 304 306 307 307 308 308 308 308 308 307 307 307 307 307 307 307 305 304 303 302
327 325 321 320 320 324 324 326 323 316 312 316 314 312 311 311 310 309 308 306 305 304 303 303 303 305 306 307 308 308 308 307 307 307 306 306 305 305 304 303 302 301 301 301
319 323 316 319 318 317 318 324 320 318 316 316 312 313 313 313 311 309 308 305 304 303 302 301 301 303 304 305 305 305 305 304 304 303 303 303 303 302 302 302 301 301 300 299
313 316 315 313 315 321 316 317 314 313 312 314 314 313 308 310 310 309 307 305 304 303 302 301 301 302 302 303 303 304 304 303 303 303 302 302 301 301 301 300 300 299 299 297
311 312 313 314 312 310 315 316 314 317 316 308 309 311 306 305 309 308 306 305 303 303 302 300 300 301 302 302 303 303 303 303 303 302 302 301 301 300 300 300 299 297 296 295
310 315 312 313 310 309 312 314 311 310 309 310 311 311 305 306 307 307 306 304 304 303 302 300 299 299 300 301 301 302 302 302 302 301 301 300 300 299 299 298 297 296 295 295
311 312 311 313 312 309 310 310 310 310 311 310 309 311 309 307 308 306 305 304 303 303 301 299 297 297 298 299 300 300 301 301 301 300 300 299 299 298 297 296 296 295 295 294
309 312 308 308 309 308 309 309 310 310 309 312 311 309 308 306 307 307 305 303 303 302 301 299 297 295 297 299 299 300 300 300 299 299 299 299 298 297 296 296 295 295 294 294
305 309 309 309 309 310 310 309 309 309 308 308 309 309 308 304 303 305 304 303 303 302 301 299 297 297 298 299 299 299 299 299 299 299 298 298 297 296 295 295 295 294 294 294
306 307 309 310 313 313 315 313 310 309 308 308 309 308 306 306 305 304 303 303 303 301 299 297 296 297 299 299 299 299 299 299 298 298 298 297 297 296 295 295 295 294 294 293
305 311 311 311 313 316 312 308 309 310 310 309 309 307 307 305 301 300 301 301 300 298 297 296 297 298 299 298 299 299 299 298 298 298 298 297 297 296 295 295 294 294 293 292
306 309 311 311 312 311 311 309 307 311 310 309 308 307 304 303 303 301 298 298 296 296 296 297 298 299 299 299 299 298 298 298 297 298 297 297 296 295 295 294 294 293 292 291
306 307 309 309 312 312 307 307 307 302 303 306 307 306 304 304 305 302 298 296 296 297 298 298 299 299 299 299 299 298 298 298 298 298 298 297 295 295 294 294 293 292 291 291
307 306 310 311 310 310 308 307 305 302 303 305 306 304 303 304 302 298 296 297 297 298 298 299 299 299 299 299 298 298 298 298 298 298 297 296 295 294 294 293 293 291 291 290
308 308 307 308 311 311 305 306 304 302 305 306 304 303 303 300 297 297 297 296 297 297 298 299 298 298 299 298 298 298 297 298 298 297 297 295 295 294 293 293 292 291 290 289
309 308 308 308 309 306 303 304 302 303 304 305 304 302 299 298 298 297 297 296 297 298 298 298 298 298 299 298 298 298 298 298 297 297 296 295 294 293 293 292 291 290 289 289
307 304 308 307 307 305 304 303 305 304 305 303 302 299 298 297 297 297 296 295 296 297 298 298 298 298 298 298 298 298 298 297 297 296 295 294 293 293 292 291 290 289 290 290
305 304 305 303 303 302 302 302 304 304 302 302 299 298 297 297 296 296 296 295 296 298 298 299 298 298 298 298 298 298 298 297 297 295 294 293 293 292 291 290 290 289 290 291
303 305 304 306 303 302 301 304 302 302 302 300 299 297 297 297 296 296 295 297 297 298 298 298 298 297 298 298 298 298 297 296 295 294 293 293 292 291 290 289 289 289 290 291
Wind_Speed
5 3 8 4 4 4 3 6 5 2 5 4 9 7 11 8 6 7 8 7 8 7 5 14 21 26 33 34 33 34 33 31 28 26 23 19 18 17 15 13 12 11 11 10
2 7 8 8 7 9 6 6 4 1 2 1 4 9 6 7 6 7 9 8 7 6 7 12 17 25 32 36 36 35 34 32 28 25 22 19 18 16 15 14 15 14 14 14
5 5 7 7 6 12 5 6 4 3 2 3 4 6 6 4 5 3 2 4 4 8 9 7 15 22 26 35 37 37 34 31 27 24 19 15 15 12 15 16 17 19 18 17
4 3 6 2 4 7 6 5 5 6 4 4 2 4 5 3 5 3 5 3 2 2 4 6 12 20 28 31 34 33 31 27 24 22 21 19 18 16 16 17 18 17 18 18
4 3 2 3 4 5 6 5 7 5 4 2 2 1 5 1 5 6 4 3 2 3 4 8 9 20 25 27 29 28 26 23 23 22 22 20 17 14 10 10 11 12 14 17
2 1 1 2 3 3 7 7 8 5 3 2 6 6 5 5 6 4 3 1 4 6 3 6 12 17 21 22 22 21 21 21 21 20 18 17 16 14 13 12 11 10 11 11
3 3 1 1 5 4 5 6 2 1 2 4 3 3 8 4 4 5 7 2 5 5 2 7 9 13 14 15 14 13 13 13 14 14 15 14 13 12 11 10 10 9 8 6
5 3 3 3 4 5 4 6 5 5 5 4 2 6 5 3 4 6 7 5 5 6 6 7 9 15 13 13 13 13 13 11 8 7 5 5 5 4 3 2 3 3 3 3
2 6 9 3 3 6 4 4 3 4 3 3 3 4 4 3 4 5 7 7 6 6 6 8 11 17 17 15 13 13 12 11 8 7 6 4 3 2 1 1 1 2 2 4
4 0 4 5 1 1 4 6 4 1 3 4 3 3 5 5 6 5 5 7 5 5 7 7 10 15 15 16 16 15 12 11 9 6 5 4 3 3 2 2 3 4 3 5
2 5 3 2 2 5 2 2 2 4 3 4 0 5 5 9 9 10 8 7 8 7 7 7 8 12 14 13 12 11 8 6 4 3 3 2 3 2 2 1 2 4 5 8
1 2 1 3 2 0 2 1 4 4 3 2 4 5 2 7 9 9 9 8 7 7 7 6 10 12 11 11 9 8 6 3 1 2 3 3 2 1 3 5 5 6 9 11
4 3 3 2 3 3 2 4 3 5 3 4 5 5 4 4 8 8 10 8 8 8 7 6 8 10 12 11 10 8 5 3 2 3 4 3 2 4 4 5 8 10 10 12
1 0 3 4 4 2 3 3 3 4 3 4 6 4 3 5 9 7 7 8 9 8 8 6 6 8 10 9 7 6 4 2 2 1 1 3 4 4 6 8 9 9 13 18
2 2 2 4 4 2 3 4 6 6 4 5 4 7 6 9 12 12 9 7 8 7 7 6 6 6 8 7 6 3 2 2 2 1 2 5 6 6 8 8 9 13 16 17
1 1 3 3 2 2 4 6 5 5 3 4 4 5 3 4 7 6 9 10 10 6 7 7 6 8 8 5 3 1 1 2 1 2 6 8 8 10 9 9 13 16 17 17
2 2 3 4 4 5 6 5 6 4 3 6 6 8 4 4 6 6 8 9 7 7 7 7 7 8 5 2 1 2 2 3 4 6 8 9 10 11 10 13 16 18 18 19
3 3 2 3 4 2 4 1 1 4 3 3 2 4 4 4 4 5 2 7 8 9 7 7 9 6 3 1 2 3 5 6 8 10 11 11 13 11 13 15 18 19 18 20
1 4 2 2 2 6 2 0 1 2 5 7 6 5 5 5 4 6 4 4 6 8 10 10 8 5 4 1 1 3 5 7 11 14 16 15 14 13 14 17 19 19 19 16
4 4 4 2 2 4 4 1 1 2 5 4 6 6 7 3 2 3 4 6 7 14 12 10 7 5 2 1 2 4 6 8 11 14 16 15 12 13 15 17 19 18 13 20
1 2 4 2 2 8 5 1 0 4 6 2 6 5 6 4 4 3 7 5 12 13 11 10 7 3 1 2 5 7 8 11 12 14 14 12 11 13 15 17 17 14 19 25
6 5 3 2 1 6 5 3 5 5 1 2 3 5 5 5 7 8 7 8 9 10 9 7 4 2 5 6 7 10 11 10 11 12 11 11 12 13 15 15 15 17 22 27
2 5 4 8 6 4 6 3 3 4 4 4 5 4 7 9 7 8 7 7 8 9 6 3 3 4 6 7 8 9 10 10 11 11 11 12 12 14 13 15 16 21 24 21
3 3 2 2 3 7 7 4 4 6 5 4 4 7 8 9 9 7 6 5 6 6 4 2 1 5 7 6 8 9 10 11 11 11 12 11 13 12 14 14 17 21 22 20
3 4 4 5 8 5 7 6 7 5 6 6 6 5 7 11 7 7 6 5 7 5 4 3 3 4 5 6 8 8 8 9 9 10 11 12 11 11 16 16 19 21 20 18
5 6 5 6 7 3 4 2 7 8 8 9 8 6 5 7 9 7 6 9 7 5 2 3 2 5 5 6 8 8 9 8 8 9 12 11 11 14 15 18 24 20 17 18
Wind_Direction
194 169 207 171 197 249 174 137 149 228 181 147 198 211 221 231 244 244 234 245 234 189 140 175 172 170 172 175 177 178 176 177 177 176 172 174 178 183 189 194 199 209 214 221
6 206 219 192 216 201 204 178 179 45 112 125 166 242 234 210 237 218 229 237 220 155 166 156 163 170 172 175 179 179 180 180 184 183 183 185 185 195 203 212 215 220 229 234
176 224 168 183 187 201 192 156 168 161 77 49 100 306 247 223 221 186 42 173 176 177 181 153 159 171 172 178 182 182 182 186 186 187 183 183 186 198 211 221 226 228 233 237
191 287 149 135 219 182 210 166 136 132 128 195 165 257 258 265 235 194 121 110 173 173 161 161 162 172 175 179 182 183 186 188 188 191 192 191 198 207 220 233 241 239 242 247
240 54 164 135 214 135 232 146 164 145 98 122 226 127 259 170 242 215 185 168 247 292 195 182 176 176 179 178 182 189 190 191 194 199 205 209 217 225 223 228 234 239 249 254
271 315 76 116 34 161 144 75 51 54 77 260 214 166 271 200 214 173 181 162 329 319 293 146 146 168 174 183 186 189 192 196 205 211 215 224 231 234 233 233 236 243 248 249
17 322 40 164 78 36 103 93 56 67 207 228 150 142 249 300 247 182 161 109 359 353 148 150 126 127 158 181 187 188 193 201 213 218 227 235 240 244 251 255 258 252 244 230
27 325 7 328 150 183 180 158 156 180 174 204 86 221 251 304 31 93 103 101 63 58 88 97 110 123 137 148 151 149 150 150 155 166 187 213 238 256 255 236 225 224 237 264
91 308 302 221 184 152 182 187 227 65 42 100 211 290 309 72 77 92 110 90 75 77 87 104 110 128 136 137 140 143 137 127 128 124 113 108 118 149 169 189 237 275 283 289
203 164 253 284 181 279 166 177 78 100 217 226 278 278 238 210 192 165 144 127 125 105 99 111 117 123 121 120 120 122 120 117 118 122 127 133 136 144 167 211 261 276 287 299
174 194 198 208 229 175 128 138 131 133 132 157 349 265 214 205 188 180 177 172 162 150 147 141 126 127 126 123 120 117 113 110 117 138 161 166 156 146 124 331 295 289 301 313
124 142 196 186 264 265 133 202 192 121 207 94 136 278 350 253 178 162 173 179 178 170 168 151 141 135 134 132 132 129 133 142 190 253 243 208 176 263 315 313 305 310 311 313
354 1 358 27 20 16 159 238 97 81 74 185 132 264 14 111 147 183 169 178 181 181 161 155 149 149 140 133 132 130 119 110 135 188 199 216 278 309 314 306 307 309 310 313
197 218 171 194 222 179 257 217 153 129 121 176 217 253 227 188 185 188 182 187 185 182 172 159 144 144 140 136 131 137 138 146 147 182 228 305 313 306 302 305 305 310 315 314
76 222 211 247 238 263 259 242 187 198 174 165 239 205 243 204 199 196 187 165 176 178 163 158 150 141 137 145 150 132 108 104 110 110 325 307 292 289 300 299 305 312 313 311
46 278 348 305 335 316 276 265 222 223 178 259 170 251 228 123 114 154 185 176 191 168 153 145 142 151 160 159 152 169 183 170 180 298 318 312 300 300 297 303 311 313 312 311
42 52 42 278 344 331 298 234 203 203 188 161 190 227 165 180 199 196 193 191 176 143 139 146 154 149 143 150 221 253 249 237 266 298 317 310 303 300 295 307 313 313 312 312
133 100 93 254 1 284 249 255 254 228 254 180 156 188 165 121 82 40 8 161 145 138 135 137 142 134 125 65 0 313 267 265 284 293 295 300 304 294 302 309 311 311 310 310
152 122 89 109 213 287 339 159 191 176 279 197 187 146 90 123 123 29 17 107 126 126 143 143 134 122 102 72 317 311 307 293 294 298 300 301 296 291 301 308 312 312 310 309
75 69 119 114 115 236 250 261 5 65 298 198 154 154 154 139 104 259 120 102 111 131 134 134 131 138 148 184 313 302 307 311 312 317 310 303 292 298 306 311 311 311 308 314
96 23 167 149 228 286 244 244 23 80 247 31 153 156 147 158 183 141 124 98 132 141 141 141 150 155 226 276 287 297 299 305 320 320 314 303 298 304 311 310 313 310 316 320
175 148 186 89 111 292 169 96 178 215 358 63 102 148 137 113 108 122 130 145 148 142 149 162 172 273 314 304 299 301 300 316 322 323 317 307 308 312 315 314 312 314 319 321
245 187 181 180 215 245 210 185 159 169 157 167 130 140 132 128 143 150 152 154 156 160 158 180 235 305 323 325 315 304 316 319 316 313 311 312 312 317 316 315 318 323 325 322
243 162 196 66 263 235 241 230 191 191 181 133 132 139 145 141 145 148 150 147 147 160 173 172 244 305 314 334 328 317 318 315 311 309 312 315 316 319 318 321 323 327 324 315
218 133 184 263 278 279 262 218 189 153 120 116 109 136 136 138 149 151 144 150 164 167 182 221 278 291 313 331 328 330 334 328 320 312 315 318 319 322 326 328 328 323 317 309
193 196 176 232 224 167 237 230 157 146 167 161 133 113 122 148 146 133 147 168 172 181 215 269 275 303 316 331 339 340 332 330 321 320 324 325 316 326 330 330 329 331 320 317